Weather 🌤️

Recent data

Temperatures

Wind

Pressure

Humidity & Precipitation

Last data
obsTime qcStatus tempAvg heatindexAvg windspeedAvg windgustAvg winddirAvg pressureAvg humidityAvg precipRate precipTotal
2026-09-06 06:34:48 0 21.2 21 0 1.1 198 1002.2 62 0 0
2026-09-06 06:29:56 0 21.4 21.2 0.1 0.2 193 1002.2 62 0 0
2026-09-06 06:24:56 0 21.4 21.2 0 0 195 1002.2 62 0 0
2026-09-06 06:19:56 0 21.5 21.3 0 0 199 1002.03 62 0 0
2026-09-06 06:14:56 0 21.5 21.3 0 0 197 1002.2 62 0 0
2026-09-06 06:09:56 0 21.5 21.3 0 0 198 1002.2 62 0 0
2026-09-06 06:04:56 0 21.5 21.4 0 1.1 197 1002.2 62 0 0
2026-09-06 05:59:56 0 21.6 21.4 0 1.1 197 1002.2 61.2 0 0
2026-09-06 05:54:56 0 21.6 21.4 0 1.1 195 1002.2 61 0 0
2026-09-06 05:49:56 0 21.8 21.6 0 1.1 198 1002.2 61 0 0
2026-09-06 05:44:47 0 21.8 21.7 0 1.1 194 1002.2 61 0 0
2026-09-06 05:39:51 0 21.9 21.7 0 1.1 198 1002.2 61 0 0

Hourly data

Temperatures

Wind

Pressure

Humidity & Precipitation

Last data
obsTime qcStatus tempAvg heatindexAvg windspeedAvg windgustAvg winddirAvg pressureAvg humidityAvg precipRate precipTotal
2026-09-06 05:59:56 0 21.9 21.7 0 1.7 195 1002.2 60.6 0 0
2026-09-06 04:59:56 0 22.4 22.3 0.3 2.2 206 1002.2 59.1 0 0
2026-09-06 03:59:56 0 23.1 22.9 0.3 3.9 214 1002.37 57.5 0 0
2026-09-06 02:59:56 0 23.6 23.5 1.6 6.6 220 1002.54 56.1 0 0
2026-09-06 01:59:56 0 24.2 24.1 2.4 6.7 223 1002.54 55.1 0 0
2026-09-06 00:59:56 0 24.6 24.5 2.8 7.8 225 1002.71 54.9 0 0
2026-09-05 23:59:51 0 25.3 25.3 2.9 6.1 227 1002.71 53.4 0 0
2026-09-05 22:59:56 0 26 26 1.7 6 215 1003.05 52.1 0 0
2026-09-05 21:59:49 0 26.6 26.8 1.5 7.2 221 1002.54 50.6 0 0
2026-09-05 20:59:53 0 27.5 27.8 3.7 14 280 1002.03 48.8 0 0
2026-09-05 19:59:57 1 28.5 28.7 6.9 13.6 279 1001.53 46.6 0 0
2026-09-05 18:59:57 1 29.4 29.5 5.1 11.8 280 1001.53 45.1 0 0
2026-09-05 17:59:49 1 29.3 29.4 4.8 11.9 277 1001.36 45 0 0
2026-09-05 16:59:49 1 29.1 29.2 4.4 15.1 249 1001.69 45 0 0
2026-09-05 15:59:57 1 28.7 28.7 5 17.1 255 1002.03 44.4 0 0
2026-09-05 14:59:49 1 28.1 28.1 4.6 11.4 234 1002.37 45.1 0 0
2026-09-05 13:59:49 1 27.1 27.2 3.8 10.4 261 1002.71 46.5 0 0
2026-09-05 12:59:48 1 26.4 26.3 3.4 7.7 230 1003.05 47 0 0
2026-09-05 11:59:57 1 25.2 25 2.2 6.1 211 1003.22 48.3 0 0
2026-09-05 10:59:57 1 22.6 22.2 1.6 4.5 184 1003.05 51.2 0 0
2026-09-05 09:59:50 1 21 20.8 0.5 2.9 164 1002.71 52.7 0 0
2026-09-05 08:59:49 0 20.5 20.5 0.3 2.1 167 1002.2 52.1 0 0
2026-09-05 07:59:48 0 20.4 20.4 0.2 1.7 164 1001.69 51 0 0
2026-09-05 06:59:51 0 21.2 20.8 0.1 1.9 148 1001.36 48.9 0 0